QPF
0.00 0.00 0.00 0.00 0.00 0.00 0.00 0.00 0.00 0.00 0.00 0.00 0.00 0.00 0.00 0.00 0.00 0.00 0.01 0.00 0.00 0.00 0.00 0.00 0.00 0.00 0.00 0.00 0.00 0.00 0.00 0.00 0.00 0.00 0.00 0.00 0.00 0.00 0.00 0.00 0.00 0.00 0.00 0.00 0.00 0.00 0.00 0.00 0.00
0.00 0.00 0.00 0.00 0.00 0.00 0.00 0.00 0.00 0.00 0.00 0.00 0.00 0.00 0.00 0.00 0.00 0.00 0.00 0.00 0.00 0.00 0.00 0.00 0.00 0.00 0.00 0.00 0.00 0.00 0.00 0.00 0.00 0.00 0.00 0.00 0.00 0.00 0.00 0.00 0.00 0.00 0.00 0.00 0.00 0.00 0.00 0.00 0.00
0.00 0.00 0.00 0.00 0.00 0.00 0.00 0.00 0.00 0.00 0.00 0.00 0.00 0.00 0.00 0.00 0.00 0.00 0.00 0.00 0.00 0.00 0.00 0.00 0.00 0.00 0.00 0.00 0.00 0.00 0.00 0.00 0.00 0.00 0.00 0.00 0.00 0.00 0.00 0.00 0.00 0.00 0.00 0.00 0.00 0.00 0.00 0.00 0.00
0.00 0.00 0.00 0.00 0.00 0.00 0.00 0.00 0.00 0.00 0.00 0.00 0.00 0.00 0.00 0.00 0.00 0.00 0.00 0.00 0.00 0.00 0.00 0.00 0.00 0.00 0.00 0.00 0.00 0.00 0.00 0.00 0.00 0.00 0.00 0.00 0.00 0.00 0.00 0.00 0.00 0.00 0.00 0.00 0.00 0.00 0.00 0.00 0.00
0.00 0.00 0.00 0.00 0.00 0.00 0.00 0.00 0.00 0.00 0.00 0.00 0.00 0.00 0.00 0.00 0.00 0.00 0.00 0.00 0.00 0.00 0.00 0.00 0.00 0.00 0.00 0.00 0.00 0.00 0.00 0.00 0.00 0.00 0.00 0.00 0.00 0.00 0.00 0.00 0.00 0.00 0.00 0.00 0.00 0.00 0.00 0.00 0.00
0.00 0.00 0.00 0.00 0.00 0.00 0.00 0.00 0.00 0.00 0.00 0.00 0.00 0.00 0.00 0.00 0.00 0.00 0.00 0.00 0.00 0.00 0.00 0.00 0.00 0.00 0.00 0.00 0.00 0.00 0.00 0.00 0.00 0.00 0.00 0.00 0.00 0.00 0.00 0.00 0.00 0.00 0.00 0.00 0.00 0.00 0.00 0.00 0.00
0.00 0.00 0.00 0.00 0.00 0.00 0.00 0.00 0.00 0.00 0.00 0.00 0.00 0.00 0.00 0.00 0.00 0.00 0.00 0.00 0.00 0.00 0.00 0.00 0.00 0.00 0.00 0.00 0.00 0.00 0.00 0.00 0.00 0.00 0.00 0.00 0.00 0.00 0.00 0.00 0.00 0.00 0.00 0.00 0.00 0.00 0.00 0.00 0.00
0.00 0.00 0.00 0.00 0.00 0.00 0.00 0.00 0.00 0.00 0.00 0.00 0.00 0.00 0.00 0.00 0.00 0.00 0.00 0.00 0.00 0.00 0.00 0.00 0.00 0.00 0.00 0.00 0.00 0.00 0.00 0.00 0.00 0.00 0.00 0.00 0.00 0.00 0.00 0.00 0.00 0.00 0.00 0.00 0.00 0.00 0.00 0.00 0.00
0.00 0.00 0.00 0.00 0.00 0.00 0.00 0.00 0.00 0.00 0.00 0.00 0.00 0.00 0.00 0.00 0.00 0.00 0.00 0.00 0.00 0.00 0.00 0.00 0.00 0.00 0.00 0.00 0.00 0.00 0.00 0.00 0.00 0.00 0.01 0.00 0.00 0.00 0.00 0.00 0.00 0.00 0.00 0.00 0.00 0.00 0.00 0.00 0.00
0.00 0.00 0.00 0.00 0.00 0.00 0.00 0.00 0.00 0.00 0.00 0.00 0.00 0.00 0.00 0.00 0.00 0.00 0.00 0.00 0.00 0.00 0.00 0.00 0.00 0.00 0.00 0.00 0.00 0.00 0.00 0.01 0.01 0.00 0.01 0.01 0.00 0.00 0.00 0.00 0.00 0.00 0.00 0.00 0.00 0.00 0.00 0.00 0.00
0.00 0.00 0.00 0.00 0.00 0.00 0.00 0.00 0.00 0.00 0.00 0.00 0.00 0.00 0.00 0.00 0.00 0.00 0.00 0.00 0.00 0.00 0.00 0.00 0.00 0.00 0.00 0.00 0.00 0.00 0.00 0.00 0.00 0.00 0.00 0.00 0.00 0.00 0.00 0.00 0.00 0.00 0.00 0.00 0.00 0.00 0.00 0.00 0.00
0.00 0.00 0.00 0.00 0.00 0.00 0.00 0.00 0.00 0.00 0.00 0.00 0.00 0.00 0.00 0.00 0.00 0.00 0.00 0.00 0.00 0.00 0.00 0.00 0.00 0.00 0.00 0.00 0.00 0.00 0.00 0.00 0.00 0.00 0.00 0.00 0.00 0.00 0.00 0.00 0.00 0.00 0.00 0.00 0.00 0.00 0.00 0.00 0.00
0.00 0.00 0.00 0.00 0.00 0.00 0.00 0.00 0.00 0.00 0.00 0.00 0.00 0.00 0.00 0.00 0.00 0.00 0.00 0.00 0.00 0.00 0.00 0.00 0.00 0.00 0.00 0.00 0.00 0.00 0.00 0.00 0.00 0.00 0.00 0.00 0.00 0.00 0.00 0.00 0.00 0.00 0.00 0.00 0.00 0.00 0.00 0.00 0.00
0.00 0.00 0.00 0.00 0.00 0.00 0.00 0.00 0.00 0.00 0.00 0.00 0.00 0.00 0.00 0.00 0.00 0.00 0.00 0.00 0.00 0.00 0.00 0.00 0.00 0.00 0.00 0.00 0.00 0.00 0.00 0.00 0.00 0.00 0.00 0.00 0.00 0.00 0.00 0.00 0.00 0.00 0.00 0.00 0.00 0.00 0.00 0.00 0.00
0.00 0.00 0.00 0.00 0.00 0.00 0.00 0.00 0.00 0.00 0.00 0.00 0.00 0.00 0.00 0.00 0.00 0.00 0.00 0.00 0.00 0.00 0.00 0.00 0.00 0.00 0.00 0.00 0.00 0.00 0.00 0.00 0.00 0.00 0.00 0.00 0.00 0.00 0.00 0.00 0.00 0.00 0.00 0.00 0.00 0.00 0.00 0.00 0.00
0.00 0.00 0.00 0.00 0.00 0.00 0.00 0.00 0.00 0.00 0.00 0.00 0.00 0.00 0.00 0.00 0.00 0.00 0.00 0.00 0.00 0.00 0.00 0.00 0.00 0.00 0.00 0.00 0.00 0.00 0.00 0.00 0.00 0.00 0.00 0.00 0.00 0.00 0.00 0.00 0.00 0.00 0.00 0.00 0.00 0.00 0.00 0.00 0.00
0.00 0.00 0.00 0.00 0.00 0.00 0.00 0.00 0.00 0.00 0.00 0.00 0.00 0.00 0.00 0.00 0.00 0.00 0.00 0.00 0.00 0.00 0.00 0.00 0.00 0.00 0.00 0.00 0.00 0.00 0.00 0.00 0.00 0.00 0.00 0.00 0.00 0.00 0.00 0.00 0.00 0.00 0.00 0.00 0.00 0.00 0.00 0.00 0.00
0.00 0.00 0.00 0.00 0.00 0.00 0.00 0.00 0.00 0.00 0.00 0.00 0.00 0.00 0.00 0.00 0.00 0.00 0.00 0.00 0.00 0.00 0.00 0.00 0.00 0.00 0.00 0.00 0.00 0.00 0.00 0.00 0.00 0.00 0.00 0.00 0.00 0.00 0.00 0.00 0.00 0.00 0.00 0.00 0.00 0.00 0.00 0.00 0.00
0.00 0.00 0.00 0.00 0.00 0.00 0.00 0.00 0.00 0.00 0.00 0.00 0.00 0.00 0.00 0.00 0.00 0.00 0.00 0.00 0.00 0.00 0.00 0.00 0.00 0.00 0.00 0.00 0.00 0.00 0.00 0.00 0.00 0.00 0.00 0.00 0.00 0.00 0.00 0.00 0.00 0.00 0.00 0.00 0.00 0.00 0.00 0.00 0.00
0.00 0.00 0.00 0.00 0.00 0.00 0.00 0.00 0.00 0.00 0.00 0.00 0.00 0.00 0.00 0.00 0.00 0.00 0.00 0.00 0.00 0.00 0.00 0.00 0.00 0.00 0.00 0.00 0.00 0.00 0.00 0.00 0.00 0.00 0.00 0.00 0.00 0.00 0.00 0.00 0.00 0.00 0.00 0.00 0.00 0.00 0.00 0.00 0.00
0.00 0.00 0.00 0.00 0.00 0.00 0.00 0.00 0.00 0.00 0.00 0.00 0.00 0.00 0.00 0.00 0.00 0.00 0.00 0.00 0.00 0.00 0.00 0.00 0.00 0.00 0.00 0.00 0.00 0.00 0.00 0.00 0.00 0.00 0.00 0.00 0.00 0.00 0.00 0.00 0.00 0.00 0.00 0.00 0.00 0.00 0.00 0.00 0.00
0.00 0.00 0.00 0.00 0.00 0.00 0.00 0.00 0.00 0.00 0.00 0.00 0.00 0.00 0.00 0.00 0.00 0.00 0.00 0.00 0.00 0.00 0.00 0.00 0.00 0.00 0.00 0.00 0.00 0.00 0.00 0.00 0.00 0.00 0.00 0.00 0.00 0.00 0.00 0.00 0.00 0.00 0.00 0.00 0.00 0.00 0.00 0.00 0.00
0.00 0.00 0.00 0.00 0.00 0.00 0.00 0.00 0.00 0.00 0.00 0.00 0.00 0.00 0.00 0.00 0.00 0.00 0.00 0.00 0.00 0.00 0.00 0.00 0.00 0.00 0.00 0.00 0.00 0.00 0.00 0.00 0.00 0.00 0.00 0.00 0.00 0.00 0.00 0.00 0.00 0.00 0.00 0.00 0.00 0.00 0.00 0.01 0.01
0.00 0.00 0.00 0.00 0.00 0.00 0.00 0.00 0.00 0.00 0.00 0.00 0.00 0.00 0.00 0.00 0.00 0.00 0.00 0.00 0.00 0.00 0.00 0.00 0.00 0.00 0.00 0.00 0.00 0.00 0.00 0.00 0.00 0.00 0.00 0.00 0.00 0.00 0.00 0.00 0.00 0.00 0.00 0.00 0.00 0.00 0.01 0.01 0.02
0.00 0.00 0.00 0.00 0.00 0.00 0.00 0.00 0.00 0.00 0.00 0.00 0.00 0.00 0.00 0.00 0.00 0.00 0.00 0.00 0.00 0.00 0.00 0.00 0.00 0.00 0.00 0.00 0.00 0.00 0.00 0.00 0.00 0.00 0.00 0.00 0.00 0.00 0.00 0.00 0.00 0.00 0.00 0.00 0.00 0.01 0.00 0.01 0.01
0.00 0.00 0.00 0.00 0.00 0.00 0.00 0.00 0.00 0.00 0.00 0.00 0.00 0.00 0.00 0.00 0.00 0.00 0.00 0.00 0.00 0.00 0.00 0.00 0.00 0.00 0.00 0.00 0.00 0.00 0.00 0.00 0.00 0.00 0.00 0.00 0.00 0.00 0.00 0.00 0.00 0.00 0.00 0.00 0.00 0.00 0.00 0.00 0.01
0.00 0.00 0.00 0.00 0.00 0.00 0.00 0.00 0.00 0.00 0.00 0.00 0.00 0.00 0.00 0.00 0.00 0.00 0.00 0.00 0.00 0.00 0.00 0.00 0.00 0.00 0.00 0.00 0.00 0.00 0.00 0.00 0.00 0.00 0.00 0.00 0.00 0.00 0.00 0.00 0.00 0.00 0.00 0.00 0.00 0.00 0.00 0.01 0.01
0.00 0.00 0.00 0.00 0.00 0.00 0.00 0.00 0.00 0.00 0.00 0.00 0.00 0.00 0.00 0.00 0.00 0.00 0.00 0.00 0.00 0.00 0.00 0.00 0.00 0.00 0.00 0.00 0.00 0.00 0.00 0.00 0.00 0.00 0.00 0.00 0.00 0.00 0.00 0.00 0.00 0.00 0.00 0.00 0.00 0.00 0.00 0.00 0.00
0.00 0.00 0.00 0.00 0.00 0.00 0.00 0.00 0.00 0.00 0.00 0.00 0.00 0.00 0.00 0.00 0.00 0.00 0.00 0.00 0.00 0.00 0.00 0.00 0.00 0.00 0.00 0.00 0.00 0.00 0.00 0.00 0.00 0.00 0.00 0.00 0.00 0.00 0.00 0.00 0.00 0.00 0.00 0.00 0.00 0.00 0.00 0.00 0.00
0.00 0.00 0.00 0.00 0.00 0.00 0.00 0.00 0.00 0.00 0.00 0.00 0.00 0.00 0.00 0.00 0.00 0.00 0.00 0.00 0.00 0.00 0.00 0.00 0.00 0.00 0.00 0.00 0.00 0.00 0.00 0.00 0.00 0.00 0.00 0.00 0.00 0.00 0.00 0.00 0.00 0.00 0.00 0.00 0.00 0.00 0.00 0.00 0.00
MSLP
1011.67 1011.06 1010.71 1009.65 1007.62 1004.46 1003.95 1004.35 1004.34 1004.87 1005.39 1006.44 1006.75 1007.22 1008.59 1009.45 1009.60 1010.79 1012.56 1012.72 1012.44 1012.61 1013.51 1014.17 1014.92 1014.83 1014.72 1014.83 1014.89 1014.81 1014.87 1014.87 1014.70 1014.81 1014.95 1015.08 1015.20 1015.27 1015.31 1015.43 1015.56 1015.63 1015.68 1015.77 1015.91 1015.98 1016.01 1016.01 1015.96
1010.73 1010.66 1009.87 1007.25 1004.86 1003.07 1003.79 1004.51 1004.21 1004.96 1005.96 1006.85 1007.55 1008.17 1008.98 1010.59 1011.26 1011.87 1011.97 1012.95 1012.77 1013.10 1013.52 1014.04 1015.05 1015.02 1015.01 1015.09 1015.25 1015.25 1015.13 1015.21 1015.36 1015.31 1015.39 1015.44 1015.44 1015.48 1015.61 1015.72 1015.69 1015.77 1015.87 1015.89 1015.89 1016.02 1016.05 1016.05 1016.08
1010.74 1010.18 1007.78 1005.25 1003.37 1002.45 1003.53 1004.06 1004.88 1006.06 1006.83 1007.03 1007.85 1008.77 1009.91 1011.56 1012.21 1012.07 1012.81 1012.95 1012.95 1013.15 1013.60 1014.67 1015.13 1015.10 1015.10 1015.25 1015.43 1015.43 1015.43 1015.41 1015.55 1015.59 1015.68 1015.65 1015.67 1015.67 1015.61 1015.66 1015.79 1015.79 1015.81 1015.87 1015.92 1015.89 1015.93 1015.95 1016.02
1009.71 1008.65 1007.11 1004.89 1003.28 1004.22 1003.82 1004.64 1005.54 1006.26 1006.93 1007.46 1008.05 1009.56 1011.55 1012.79 1012.82 1013.11 1013.17 1012.95 1012.77 1012.75 1013.59 1014.84 1015.05 1015.29 1015.38 1015.31 1015.45 1015.62 1015.58 1015.60 1015.51 1015.66 1015.74 1015.81 1015.78 1015.81 1015.82 1015.82 1015.78 1015.82 1015.88 1015.81 1015.75 1015.84 1015.85 1015.86 1015.83
1009.06 1007.03 1004.98 1003.95 1003.88 1004.88 1005.09 1005.13 1005.71 1005.86 1006.79 1007.55 1008.16 1009.69 1011.43 1013.03 1013.63 1013.29 1013.20 1013.04 1012.77 1012.97 1013.36 1014.39 1015.23 1015.39 1015.32 1015.31 1015.49 1015.46 1015.58 1015.56 1015.59 1015.55 1015.66 1015.76 1015.77 1015.83 1015.85 1015.88 1015.85 1015.83 1015.82 1015.79 1015.73 1015.70 1015.74 1015.71 1015.67
1007.27 1006.08 1004.15 1003.64 1004.09 1005.17 1005.67 1005.80 1005.90 1006.29 1007.17 1007.97 1008.58 1010.15 1012.14 1013.21 1013.31 1013.44 1013.14 1013.05 1013.00 1013.49 1013.74 1014.31 1015.32 1015.37 1015.39 1015.49 1015.56 1015.49 1015.55 1015.48 1015.60 1015.62 1015.63 1015.74 1015.80 1015.85 1015.92 1015.92 1015.85 1015.82 1015.81 1015.83 1015.73 1015.61 1015.53 1015.50 1015.48
1006.35 1004.92 1003.27 1003.30 1004.31 1005.15 1006.02 1006.50 1006.40 1006.61 1007.48 1008.52 1009.01 1009.94 1012.28 1013.03 1013.60 1013.58 1013.63 1013.76 1013.53 1013.61 1013.92 1014.30 1014.48 1015.37 1015.56 1015.58 1015.62 1015.62 1015.65 1015.55 1015.59 1015.65 1015.71 1015.69 1015.69 1015.71 1015.72 1015.79 1015.73 1015.66 1015.61 1015.61 1015.61 1015.46 1015.32 1015.23 1015.16
1006.72 1004.99 1004.51 1003.87 1004.33 1004.93 1006.59 1007.17 1007.56 1007.11 1008.77 1009.95 1009.89 1009.86 1011.61 1013.12 1013.53 1013.56 1013.66 1013.58 1013.68 1013.89 1013.80 1014.03 1014.33 1014.34 1014.39 1014.92 1015.73 1015.61 1015.65 1015.62 1015.51 1015.52 1015.60 1015.62 1015.39 1015.23 1015.23 1015.29 1015.16 1015.23 1015.25 1015.20 1015.11 1015.05 1014.96 1014.88 1014.75
1007.23 1004.87 1003.93 1004.27 1004.12 1005.29 1006.78 1007.11 1008.30 1009.03 1009.09 1010.03 1010.61 1010.70 1011.89 1013.05 1013.04 1012.81 1012.91 1013.21 1013.53 1013.86 1014.07 1014.15 1014.27 1014.54 1014.57 1014.90 1015.51 1015.54 1015.63 1015.58 1015.52 1015.32 1015.51 1014.90 1014.27 1014.38 1014.31 1014.27 1014.73 1014.87 1014.78 1014.70 1014.57 1014.49 1014.39 1014.29 1014.16
1006.07 1004.47 1004.16 1004.64 1004.41 1005.41 1006.58 1006.73 1008.04 1008.58 1009.21 1010.03 1010.99 1012.08 1012.71 1013.01 1012.77 1012.45 1012.39 1012.69 1013.03 1013.53 1013.97 1014.37 1014.55 1014.67 1014.74 1014.91 1015.23 1015.23 1015.25 1015.39 1015.44 1015.43 1015.39 1014.93 1014.79 1014.72 1014.98 1014.43 1014.51 1014.40 1014.38 1014.23 1013.95 1013.83 1013.70 1013.69 1012.70
1005.89 1004.66 1005.76 1006.11 1005.79 1005.80 1006.73 1007.27 1008.08 1007.89 1008.43 1009.47 1010.43 1011.69 1012.51 1012.77 1012.63 1012.20 1012.30 1012.59 1013.13 1013.71 1014.09 1014.55 1015.07 1014.98 1014.55 1014.86 1014.84 1015.06 1015.18 1015.19 1015.33 1015.65 1015.75 1015.37 1015.03 1014.79 1014.28 1013.89 1013.39 1013.42 1013.46 1012.93 1012.53 1012.35 1012.15 1011.33 1011.04
1006.25 1006.49 1006.03 1006.35 1006.85 1006.50 1007.04 1007.66 1007.99 1008.14 1008.57 1009.51 1010.63 1011.65 1012.27 1012.36 1012.20 1012.25 1012.69 1012.99 1013.30 1013.83 1014.43 1014.63 1015.09 1015.25 1015.25 1014.90 1014.89 1014.96 1015.14 1015.26 1015.45 1015.75 1015.77 1015.44 1014.86 1014.94 1014.71 1014.16 1014.07 1013.53 1013.15 1013.19 1012.83 1012.24 1011.94 1011.94 1011.70
1006.19 1006.73 1006.72 1007.01 1007.31 1007.14 1007.65 1007.86 1008.15 1008.87 1009.78 1010.25 1011.15 1011.91 1012.11 1012.11 1012.40 1012.75 1012.95 1013.14 1013.51 1013.88 1014.41 1014.72 1015.06 1015.46 1015.56 1015.31 1015.23 1015.33 1015.25 1015.36 1015.55 1015.52 1015.78 1015.66 1015.37 1015.42 1014.94 1014.79 1014.39 1014.07 1013.57 1013.25 1012.88 1012.47 1012.15 1011.88 1011.34
1007.11 1007.07 1007.31 1007.47 1007.52 1008.02 1007.99 1008.45 1008.87 1009.61 1010.39 1010.91 1011.61 1011.89 1012.08 1012.41 1012.69 1013.09 1013.34 1013.55 1013.77 1014.12 1014.43 1014.83 1014.99 1015.43 1015.33 1015.61 1015.72 1015.53 1015.53 1015.36 1015.22 1015.27 1015.53 1015.50 1015.51 1015.64 1015.03 1014.59 1014.29 1013.96 1013.77 1013.53 1013.21 1012.63 1012.46 1011.81 1011.18
1007.38 1007.29 1007.63 1007.75 1007.92 1008.15 1008.15 1008.66 1008.79 1009.45 1010.40 1010.96 1011.47 1011.93 1012.22 1012.47 1012.81 1013.06 1013.49 1013.97 1014.18 1014.49 1014.89 1015.15 1015.12 1015.30 1015.59 1015.69 1015.75 1015.73 1015.51 1015.27 1015.27 1015.23 1015.43 1015.54 1015.46 1015.36 1015.39 1014.65 1014.28 1013.87 1013.95 1013.61 1012.99 1012.55 1012.10 1011.50 1010.78
1006.95 1006.87 1006.89 1007.55 1008.03 1008.29 1008.65 1007.45 1008.30 1009.53 1010.16 1010.60 1011.21 1011.78 1012.22 1012.50 1012.83 1013.24 1013.74 1014.11 1014.49 1014.55 1015.01 1015.25 1015.02 1015.09 1015.55 1015.67 1015.76 1015.64 1015.45 1015.48 1015.25 1015.17 1015.14 1015.26 1015.20 1015.10 1015.10 1014.49 1014.20 1013.98 1014.09 1013.33 1012.81 1012.35 1011.72 1011.19 1010.59
1006.79 1005.84 1006.13 1007.26 1007.95 1008.24 1008.45 1006.91 1007.97 1009.33 1009.85 1010.16 1010.81 1011.28 1011.86 1012.29 1012.84 1013.31 1013.85 1014.25 1014.47 1014.86 1015.01 1015.14 1015.36 1015.33 1015.43 1015.66 1015.74 1015.74 1015.65 1015.52 1015.14 1015.07 1014.92 1014.89 1015.01 1014.72 1014.76 1014.41 1013.99 1013.94 1013.65 1013.17 1012.73 1012.21 1011.78 1011.02 1010.46
1005.60 1005.94 1006.15 1006.25 1007.44 1007.78 1007.93 1007.35 1007.49 1008.85 1009.35 1009.60 1010.22 1010.74 1011.22 1011.74 1012.22 1013.09 1013.84 1014.18 1014.45 1014.75 1015.06 1015.31 1015.42 1015.56 1015.76 1015.76 1015.67 1015.44 1015.20 1015.00 1014.78 1014.75 1014.66 1014.78 1014.77 1014.63 1014.45 1014.09 1013.85 1013.65 1013.19 1012.67 1012.35 1012.19 1011.90 1011.31 1010.45
1005.80 1005.99 1006.01 1006.43 1007.24 1007.55 1007.17 1007.17 1007.52 1008.34 1008.91 1009.14 1009.54 1010.11 1010.61 1011.15 1011.89 1012.53 1013.23 1013.85 1014.27 1014.60 1014.88 1015.20 1015.38 1015.67 1015.81 1015.55 1015.13 1014.77 1014.43 1014.27 1014.33 1014.16 1014.22 1014.41 1014.36 1014.41 1014.28 1013.81 1013.45 1013.19 1012.80 1012.31 1012.39 1012.01 1011.35 1010.51 1009.84
1006.47 1006.28 1006.29 1007.11 1007.58 1007.67 1006.80 1006.64 1006.86 1007.79 1008.28 1008.44 1008.81 1009.29 1009.92 1010.75 1011.51 1011.96 1012.77 1013.51 1013.91 1014.25 1014.48 1014.80 1015.23 1015.56 1015.82 1015.61 1015.42 1015.47 1015.26 1014.82 1014.59 1014.41 1014.34 1014.31 1014.15 1014.02 1014.04 1013.73 1013.35 1013.02 1012.51 1012.11 1011.95 1011.69 1010.85 1010.02 1009.45
1006.50 1006.34 1006.23 1006.70 1007.53 1007.58 1006.99 1006.49 1006.62 1007.43 1007.90 1008.27 1008.58 1008.90 1009.40 1010.13 1010.83 1011.47 1012.31 1012.99 1013.51 1013.99 1014.39 1014.83 1015.37 1015.85 1016.01 1016.15 1015.75 1015.55 1015.34 1014.75 1014.18 1013.90 1013.83 1013.86 1013.95 1014.01 1013.95 1013.58 1013.27 1012.93 1012.65 1011.77 1011.40 1011.04 1010.50 1009.56 1008.87
1006.45 1007.05 1007.20 1007.35 1007.33 1006.55 1007.10 1005.51 1005.58 1006.56 1007.44 1007.85 1008.19 1008.69 1009.07 1009.71 1010.53 1010.96 1011.80 1012.57 1013.26 1013.92 1014.92 1015.50 1015.86 1016.17 1016.38 1016.66 1016.26 1016.51 1015.99 1015.32 1014.92 1014.94 1014.19 1014.17 1014.10 1013.81 1013.67 1013.23 1012.92 1012.66 1012.33 1011.97 1011.69 1011.45 1011.12 1010.59 1009.55
1006.89 1007.65 1007.75 1007.84 1007.49 1007.18 1006.79 1006.65 1005.33 1006.22 1006.76 1007.10 1007.72 1008.17 1008.49 1009.09 1010.05 1010.69 1011.43 1012.02 1013.31 1014.60 1015.19 1015.86 1016.33 1016.70 1017.01 1017.18 1017.21 1016.89 1016.47 1016.15 1015.60 1015.17 1014.86 1014.48 1014.09 1013.43 1013.30 1013.09 1012.68 1012.43 1012.22 1011.88 1011.79 1011.57 1011.37 1011.07 1010.37
1008.21 1008.35 1008.33 1008.35 1007.68 1007.28 1006.59 1006.36 1004.91 1005.10 1006.24 1006.37 1007.29 1008.11 1008.53 1008.96 1009.57 1010.51 1011.51 1013.00 1014.04 1014.68 1015.29 1015.98 1016.42 1016.97 1017.29 1017.37 1017.36 1017.35 1017.17 1016.76 1016.16 1015.67 1015.18 1014.23 1013.81 1013.78 1013.38 1012.88 1012.94 1012.68 1012.27 1011.67 1011.24 1010.99 1010.73 1010.54 1010.18
1008.00 1008.03 1007.50 1007.42 1007.05 1006.65 1007.37 1007.11 1005.39 1006.49 1007.11 1007.57 1007.70 1008.20 1008.72 1009.19 1009.71 1010.63 1012.26 1013.02 1014.14 1014.88 1015.55 1016.07 1016.77 1016.94 1017.28 1017.45 1017.47 1017.48 1017.31 1017.00 1016.21 1015.71 1014.96 1014.93 1014.62 1014.23 1013.52 1013.34 1012.97 1012.45 1011.94 1011.42 1010.93 1010.47 1010.09 1009.79 1009.35
1007.35 1007.37 1007.63 1007.83 1006.85 1006.31 1007.87 1006.74 1006.09 1007.29 1007.71 1007.90 1007.95 1008.30 1008.87 1009.39 1009.85 1011.10 1012.42 1013.48 1014.48 1015.56 1016.23 1016.58 1016.91 1017.10 1017.40 1017.61 1017.66 1017.57 1017.37 1016.89 1016.50 1015.99 1016.08 1015.55 1014.91 1014.18 1013.67 1013.11 1012.63 1012.09 1011.54 1011.00 1010.56 1009.92 1009.42 1009.05 1008.77
1007.17 1007.76 1007.78 1008.03 1008.55 1007.99 1006.40 1006.71 1006.95 1007.25 1007.51 1007.77 1007.98 1008.43 1009.00 1009.76 1011.00 1012.38 1013.61 1014.42 1015.27 1016.11 1016.81 1017.17 1017.44 1017.50 1017.63 1017.71 1017.64 1017.45 1017.26 1017.06 1016.73 1016.41 1015.97 1015.19 1014.70 1014.09 1013.38 1012.81 1012.06 1011.40 1010.78 1010.24 1009.77 1009.16 1008.61 1008.25 1007.85
1007.14 1007.18 1008.01 1008.33 1008.39 1007.35 1006.10 1006.68 1006.29 1006.85 1007.02 1007.54 1007.92 1008.48 1009.20 1010.41 1011.96 1013.24 1014.18 1015.23 1015.91 1016.69 1017.16 1017.60 1017.81 1017.81 1017.83 1017.89 1017.75 1017.47 1017.34 1017.00 1016.71 1016.22 1015.63 1015.08 1014.38 1013.80 1013.03 1012.18 1011.42 1010.63 1009.97 1009.44 1008.83 1008.15 1007.64 1007.32 1006.93
1007.10 1006.93 1007.26 1007.49 1007.91 1008.04 1007.40 1006.05 1006.59 1006.71 1007.03 1007.25 1007.69 1008.13 1009.23 1011.06 1012.46 1013.73 1014.73 1015.78 1016.49 1017.04 1017.46 1017.92 1018.11 1018.18 1018.12 1018.12 1017.99 1017.68 1017.32 1017.06 1016.68 1016.04 1015.23 1014.75 1014.00 1013.24 1012.49 1011.66 1010.76 1010.02 1009.21 1008.57 1007.97 1007.31 1006.83 1006.41 1006.15
1005.70 1005.78 1006.45 1006.77 1007.55 1008.23 1007.91 1007.18 1006.91 1007.13 1007.43 1007.83 1007.98 1008.61 1009.91 1011.43 1013.23 1014.23 1015.13 1016.15 1016.82 1017.49 1018.00 1018.31 1018.62 1018.66 1018.62 1018.51 1018.19 1017.91 1017.61 1017.01 1016.35 1015.60 1015.07 1014.41 1013.66 1012.87 1012.04 1011.19 1010.29 1009.38 1008.50 1007.80 1007.11 1006.37 1005.89 1005.45 1005.08
Thickness
5808 5813 5818 5817 5806 5829 5808 5809 5831 5817 5818 5828 5832 5821 5802 5800 5790 5769 5797 5799 5802 5802 5794 5789 5784 5787 5789 5789 5788 5789 5789 5788 5790 5789 5786 5784 5783 5782 5782 5781 5779 5778 5778 5777 5775 5774 5773 5773 5773
5814 5814 5817 5823 5816 5812 5803 5819 5819 5825 5826 5829 5822 5815 5803 5779 5794 5791 5795 5797 5798 5796 5794 5789 5784 5784 5785 5785 5783 5783 5785 5784 5782 5782 5780 5780 5780 5780 5779 5778 5778 5776 5775 5774 5773 5771 5771 5770 5770
5813 5816 5815 5821 5827 5818 5802 5824 5822 5821 5823 5821 5810 5816 5801 5780 5788 5792 5796 5797 5796 5795 5792 5784 5782 5783 5782 5781 5780 5779 5779 5780 5778 5777 5776 5775 5776 5776 5776 5775 5774 5773 5772 5771 5771 5771 5769 5769 5767
5812 5815 5820 5810 5812 5812 5819 5822 5823 5816 5819 5821 5816 5789 5790 5790 5787 5791 5794 5796 5796 5796 5788 5780 5779 5777 5777 5778 5777 5775 5776 5776 5777 5775 5773 5772 5772 5771 5771 5770 5770 5768 5767 5767 5767 5766 5766 5766 5766
5813 5818 5806 5807 5808 5808 5817 5828 5826 5817 5813 5810 5813 5786 5780 5785 5788 5792 5792 5794 5793 5793 5789 5780 5775 5773 5774 5774 5773 5773 5772 5772 5772 5772 5771 5769 5769 5767 5766 5764 5764 5763 5762 5761 5761 5761 5760 5761 5762
5802 5816 5800 5794 5801 5805 5813 5824 5824 5817 5811 5806 5800 5786 5774 5786 5786 5787 5792 5791 5792 5788 5784 5780 5773 5772 5771 5770 5769 5770 5769 5770 5768 5767 5766 5764 5762 5761 5759 5758 5758 5757 5756 5754 5755 5755 5756 5755 5756
5801 5806 5810 5810 5798 5797 5802 5820 5812 5811 5805 5794 5804 5781 5776 5779 5783 5786 5786 5784 5786 5784 5781 5776 5774 5767 5766 5765 5765 5765 5764 5764 5763 5762 5761 5759 5757 5756 5754 5753 5752 5752 5751 5750 5749 5749 5750 5750 5751
5807 5811 5792 5805 5794 5794 5803 5804 5809 5809 5787 5797 5800 5780 5768 5775 5782 5783 5782 5783 5781 5778 5778 5774 5772 5771 5770 5765 5759 5759 5758 5758 5758 5757 5756 5754 5754 5754 5753 5750 5749 5747 5747 5746 5746 5745 5745 5745 5746
5809 5799 5793 5793 5801 5796 5804 5796 5800 5800 5792 5787 5787 5787 5782 5780 5783 5782 5780 5778 5776 5774 5772 5770 5768 5765 5764 5760 5756 5755 5753 5754 5753 5752 5751 5752 5754 5752 5752 5752 5746 5744 5744 5743 5743 5742 5743 5743 5744
5800 5800 5800 5812 5817 5802 5802 5804 5794 5789 5784 5778 5775 5776 5775 5776 5777 5776 5775 5772 5772 5768 5767 5764 5761 5760 5759 5757 5754 5753 5751 5749 5747 5746 5744 5745 5743 5742 5738 5742 5741 5740 5738 5738 5738 5739 5739 5737 5745
5801 5795 5797 5796 5808 5811 5797 5795 5797 5792 5779 5781 5773 5770 5769 5769 5771 5774 5774 5772 5766 5764 5762 5759 5754 5755 5757 5753 5751 5748 5745 5743 5740 5736 5733 5734 5734 5733 5734 5734 5737 5735 5733 5737 5739 5739 5739 5745 5747
5780 5791 5800 5798 5798 5800 5789 5794 5785 5790 5783 5789 5781 5775 5769 5764 5767 5769 5764 5762 5761 5758 5754 5755 5750 5748 5747 5747 5745 5743 5740 5737 5733 5727 5724 5723 5724 5721 5721 5721 5720 5722 5723 5723 5723 5728 5729 5729 5731
5785 5785 5793 5795 5793 5794 5792 5782 5780 5776 5780 5782 5775 5767 5763 5764 5763 5763 5762 5762 5759 5754 5752 5750 5747 5742 5740 5740 5739 5736 5734 5729 5724 5720 5715 5712 5710 5706 5707 5704 5704 5704 5707 5708 5711 5713 5715 5718 5721
5783 5783 5781 5785 5784 5782 5775 5772 5773 5769 5773 5767 5762 5759 5760 5757 5757 5754 5753 5751 5751 5750 5747 5745 5743 5738 5737 5733 5729 5727 5724 5722 5719 5715 5709 5705 5699 5694 5694 5694 5694 5693 5692 5692 5693 5698 5699 5705 5709
5780 5767 5772 5774 5776 5770 5779 5756 5757 5771 5767 5757 5755 5754 5753 5754 5753 5749 5749 5745 5746 5743 5741 5738 5737 5734 5730 5726 5722 5719 5717 5715 5711 5706 5701 5696 5691 5688 5682 5682 5681 5681 5678 5679 5682 5685 5688 5692 5699
5769 5772 5753 5768 5770 5771 5766 5748 5765 5768 5760 5754 5752 5749 5748 5749 5749 5749 5746 5743 5740 5739 5733 5730 5732 5729 5723 5720 5716 5713 5710 5704 5702 5698 5695 5689 5683 5679 5673 5673 5670 5668 5664 5667 5670 5674 5678 5681 5686
5762 5754 5759 5753 5770 5762 5758 5760 5766 5765 5758 5752 5750 5748 5746 5745 5745 5745 5742 5739 5736 5732 5728 5725 5723 5723 5720 5714 5709 5705 5700 5696 5693 5689 5686 5683 5676 5672 5665 5662 5660 5656 5655 5657 5659 5662 5664 5668 5673
5752 5753 5759 5755 5760 5760 5751 5757 5767 5760 5756 5753 5751 5749 5746 5744 5743 5742 5737 5735 5732 5729 5724 5720 5717 5714 5709 5705 5701 5698 5695 5690 5686 5681 5675 5669 5665 5662 5658 5654 5650 5647 5647 5649 5650 5649 5651 5654 5660
5769 5760 5755 5762 5763 5752 5753 5753 5756 5758 5754 5752 5751 5750 5747 5745 5747 5744 5738 5733 5727 5722 5717 5712 5708 5704 5699 5696 5693 5692 5688 5686 5680 5675 5669 5662 5656 5650 5647 5646 5643 5639 5639 5640 5636 5637 5641 5648 5653
5757 5752 5750 5751 5754 5748 5754 5752 5761 5756 5753 5756 5755 5753 5749 5745 5741 5741 5735 5729 5723 5717 5713 5708 5701 5694 5688 5685 5682 5676 5672 5671 5667 5663 5658 5653 5647 5642 5636 5633 5631 5629 5630 5631 5628 5627 5632 5639 5645
5751 5747 5749 5744 5746 5749 5747 5742 5749 5752 5755 5756 5757 5757 5753 5743 5737 5735 5729 5723 5719 5712 5707 5700 5691 5683 5677 5670 5669 5665 5661 5660 5658 5655 5650 5644 5636 5630 5625 5622 5618 5616 5615 5619 5621 5622 5624 5629 5636
5734 5751 5745 5738 5734 5727 5743 5726 5747 5750 5742 5747 5749 5748 5746 5742 5737 5734 5726 5718 5712 5705 5694 5686 5680 5672 5665 5657 5654 5645 5642 5640 5641 5635 5636 5629 5623 5619 5614 5612 5608 5605 5604 5602 5602 5603 5606 5610 5615
5736 5743 5736 5733 5729 5728 5731 5719 5748 5749 5735 5741 5744 5744 5746 5743 5735 5728 5722 5719 5706 5693 5684 5676 5667 5658 5651 5644 5637 5632 5629 5625 5625 5621 5616 5613 5609 5608 5602 5596 5594 5591 5588 5588 5584 5585 5586 5589 5596
5734 5725 5725 5724 5726 5702 5726 5725 5742 5746 5738 5744 5743 5738 5737 5736 5733 5726 5719 5702 5691 5685 5676 5666 5657 5648 5640 5633 5626 5619 5613 5610 5608 5605 5601 5603 5598 5589 5583 5579 5573 5570 5570 5573 5574 5573 5574 5576 5579
5726 5714 5700 5699 5701 5703 5717 5710 5738 5737 5736 5732 5732 5731 5729 5729 5725 5717 5700 5694 5682 5674 5666 5658 5646 5639 5631 5623 5616 5610 5605 5600 5598 5594 5593 5584 5578 5571 5566 5558 5553 5552 5555 5558 5561 5563 5564 5565 5567
5718 5719 5692 5664 5695 5716 5709 5702 5724 5730 5731 5731 5733 5730 5726 5722 5721 5708 5694 5683 5674 5662 5652 5645 5637 5629 5620 5613 5606 5601 5595 5591 5586 5581 5571 5566 5562 5557 5551 5546 5540 5538 5541 5544 5546 5551 5554 5555 5556
5712 5699 5720 5697 5696 5688 5722 5718 5726 5728 5723 5723 5722 5720 5716 5712 5701 5688 5676 5669 5659 5649 5639 5631 5623 5617 5610 5604 5598 5593 5586 5579 5572 5566 5559 5556 5550 5545 5542 5538 5536 5534 5535 5536 5537 5540 5543 5545 5548
5715 5723 5690 5693 5659 5673 5711 5698 5703 5710 5714 5716 5713 5709 5708 5698 5684 5672 5665 5654 5646 5636 5629 5620 5612 5606 5600 5593 5586 5581 5573 5567 5560 5556 5550 5545 5541 5538 5536 5535 5534 5533 5532 5531 5532 5534 5536 5538 5540
5700 5700 5705 5705 5693 5665 5667 5700 5721 5714 5714 5712 5712 5710 5702 5684 5673 5661 5653 5642 5633 5625 5618 5608 5601 5593 5587 5580 5574 5567 5561 5555 5550 5546 5543 5538 5536 5535 5534 5534 5534 5531 5530 5528 5528 5530 5533 5536 5537
5721 5714 5709 5688 5678 5678 5676 5681 5720 5716 5713 5709 5708 5704 5693 5677 5660 5652 5644 5632 5623 5614 5605 5597 5588 5581 5574 5566 5560 5554 5548 5545 5542 5540 5535 5531 5531 5531 5531 5531 5531 5530 5529 5528 5529 5531 5534 5537 5538